EW6361 Weather Reports


time (UTC)temp
C
wind
direction
speed
KPH
gust
KPH
rain 1hr
cm
rain 24hr
cm
rain mn
cm
humidity
%
barometer
mb
20260510204507 25 175 6.4 0.0 0.00 0.00 0.00 100 1011.4
20260510203058 25 210 9.7 0.0 0.00 0.00 0.00 100 1011.4
20260510201600 25 162 11.3 0.0 0.00 0.00 0.00 100 1011.4
20260510200051 26 155 11.3 0.0 0.00 0.00 0.00 100 1011.4
20260510194527 26 146 9.7 0.0 0.00 0.00 0.00 100 1011.4
20260510193030 26 165 9.7 0.0 0.00 0.00 0.00 100 1011.5
20260510191502 26 164 11.3 0.0 0.00 0.00 0.00 100 1011.7
20260510190108 26 134 9.7 0.0 0.00 0.00 0.00 100 1011.9
20260510184539 26 163 9.7 0.0 0.00 0.00 0.00 100 1011.9
20260510183031 26 122 9.7 0.0 0.00 0.00 0.00 100 1012.0
20260510181509 25 175 11.3 0.0 0.00 0.00 0.00 100 1012.4
20260510180005 25 168 11.3 0.0 0.00 0.00 0.00 100 1012.4
20260510174554 25 140 9.7 0.0 0.00 0.00 0.00 100 1012.5
20260510173040 25 165 9.7 0.0 0.00 0.00 0.00 100 1012.5
20260510171525 25 181 9.7 0.0 0.00 0.00 0.00 100 1012.6
20260510170013 26 150 6.4 0.0 0.00 0.00 0.00 100 1012.5
20260510164603 26 131 8.0 0.0 0.00 0.00 0.00 100 1012.4
20260510163104 25 159 8.0 0.0 0.00 0.00 0.00 100 1012.4
20260510161549 25 150 6.4 0.0 0.00 0.00 0.00 100 1012.4
20260510160047 25 19 1.6 0.0 0.00 0.00 0.00 100 1012.5
20260510154542 25 18 4.8 0.0 0.00 0.00 0.00 100 1012.5
20260510153041 24 18 6.4 0.0 0.00 0.00 0.00 100 1012.5
20260510151535 23 16 6.4 0.0 0.00 0.00 0.00 100 1012.5
20260510150027 23 16 6.4 0.0 0.00 0.00 0.00 100 1012.4
20260510144513 23 15 6.4 0.0 0.00 0.00 0.00 100 1012.4
20260510143012 23 355 4.8 0.0 0.00 0.00 0.00 100 1012.5
20260510141506 22 17 4.8 0.0 0.00 0.00 0.00 100 1012.5
20260510140059 22 27 8.0 0.0 0.00 0.00 0.00 100 1012.4
20260510134557 22 19 4.8 0.0 0.00 0.00 0.00 100 1012.4
20260510133052 22 15 8.0 0.0 0.00 0.00 0.00 100 1012.3
20260510131547 22 19 0.0 0.0 0.00 0.00 0.00 100 1012.2
20260510130042 22 41 1.6 0.0 0.00 0.00 0.00 100 1012.0
20260510124526 21 32 6.4 0.0 0.00 0.00 0.00 100 1011.7
20260510123022 -17 0.0 0.0 0.00 0.00 0.00 1011.4
20260510121517 -17 0.0 0.0 0.00 0.00 0.00 1011.2
20260510120012 -17 0.0 0.0 0.00 0.00 0.00 1011.1
20260510114510 -17 0.0 0.0 0.00 0.00 0.00 1010.9
20260510113005 -17 0.0 0.0 0.00 0.00 0.00 1010.6
20260510111601 21 36 4.8 0.0 0.00 0.00 0.00 100 1010.4
20260510104539 21 315 0.0 0.0 0.00 0.00 0.00 100 1010.0
20260510103039 21 5 0.0 0.0 0.00 0.00 0.00 100 1009.9
20260510101530 21 5 0.0 0.0 0.00 0.00 0.00 100 1009.9
20260510100029 21 5 0.0 0.0 0.00 0.00 0.00 100 1009.8
20260510094533 21 5 0.0 0.0 0.00 0.00 0.00 100 1009.7
20260510093017 21 5 0.0 0.0 0.00 0.00 0.00 100 1009.7
20260510091512 21 5 3.2 0.0 0.00 0.00 0.00 100 1009.3
20260510090008 21 19 6.4 0.0 0.00 0.00 0.00 100 1009.1
20260510084603 21 50 3.2 0.0 0.00 0.00 0.00 100 1008.8
20260510083042 21 91 1.6 0.0 0.00 0.00 0.00 100 1008.4
20260510081537 21 102 0.0 0.0 0.00 0.00 0.00 100 1008.3
20260510080039 21 81 0.0 0.0 0.00 0.00 0.00 100 1008.1
20260510074520 21 69 1.6 0.0 0.00 0.00 0.00 100 1008.3
20260510073033 21 65 3.2 0.0 0.00 0.00 0.00 100 1008.3
20260510071519 21 66 8.0 0.0 0.00 0.00 0.00 100 1008.4
20260510070016 22 57 4.8 0.0 0.00 0.00 0.00 100 1008.5
20260510064515 21 52 6.4 0.0 0.00 0.00 0.00 100 1008.5
20260510063018 21 22 4.8 0.0 0.00 0.00 0.00 100 1008.5
20260510061515 22 350 4.8 0.0 0.00 0.00 0.00 100 1008.6
20260510060009 22 338 4.8 0.0 0.00 0.00 0.00 100 1008.9
20260510054506 22 318 4.8 0.0 0.00 0.00 0.00 100 1009.3
20260510053002 22 324 4.8 0.0 0.00 0.00 0.00 100 1009.3
20260510051608 22 327 0.0 0.0 0.00 0.00 0.00 100 1008.9
20260510050105 22 327 0.0 0.0 0.00 0.00 0.00 100 1008.3
20260510044549 22 327 0.0 0.0 0.00 0.00 0.00 100 1009.0
20260510043047 22 327 0.0 0.0 0.00 0.00 0.00 100 1009.3
20260510041540 22 327 3.2 0.0 0.00 0.00 0.00 100 1009.4
20260510040024 22 163 0.0 0.0 0.00 0.00 0.00 100 1009.6
20260510034520 22 163 0.0 0.0 0.00 0.00 0.00 100 1009.9
20260510033015 22 163 0.0 0.0 0.00 0.00 0.00 100 1009.5
20260510031517 22 163 0.0 0.0 0.00 0.00 0.00 100 1009.4
20260510030007 22 163 0.0 0.0 0.00 0.00 0.00 100 1009.3
20260510024504 22 163 1.6 0.0 0.00 0.00 0.00 100 1008.8
20260510023059 22 163 4.8 0.0 0.00 0.00 0.00 100 1008.5
20260510021645 22 169 3.2 0.0 0.00 0.00 0.00 100 1008.7
20260510020039 22 173 4.8 0.0 0.00 0.00 0.00 100 1008.8
20260510014547 22 178 1.6 0.0 0.00 0.00 0.00 100 1009.2
20260510013033 22 177 1.6 0.0 0.00 0.00 0.00 100 1009.3
20260510011526 22 177 1.6 0.0 0.00 0.00 0.00 100 1009.7
20260510010033 22 180 6.4 0.0 0.00 0.00 0.00 100 1009.0
20260510004520 22 178 8.0 0.0 0.00 0.00 0.00 100 1008.4
20260510003013 22 145 8.0 0.0 0.00 0.00 0.00 100 1008.1
20260510001510 22 159 6.4 0.0 0.00 0.00 0.00 100 1008.3
20260510000053 22 161 3.2 0.0 0.00 0.00 0.00 100 1008.3
20260509234548 22 160 3.2 0.0 0.00 0.00 0.00 100 1008.3
20260509233044 22 160 0.0 0.0 0.00 0.00 0.00 100 1008.5
20260509231541 22 159 0.0 0.0 0.00 0.00 0.00 100 1008.4
20260509230040 22 159 1.6 0.0 0.00 0.00 0.00 100 1008.3
20260509224531 22 159 1.6 0.0 0.00 0.00 0.00 100 1008.3
20260509223027 22 160 1.6 0.0 0.00 0.00 0.00 100 1008.0
20260509221522 22 160 4.8 0.0 0.00 0.00 0.00 100 1008.2
20260509214556 23 137 1.6 0.0 0.00 0.00 0.00 100 1008.1
20260509213045 23 130 0.0 0.0 0.00 0.00 0.00 100 1008.3
20260509211538 23 167 3.2 0.0 0.00 0.00 0.00 100 1007.7
20260509210039 23 120 1.6 0.0 0.00 0.00 0.00 100 1007.9